Weather History for Warrensburg, MO

Change the Weather History Date:

Monday, March 4, 2013

  Actual Average (KSZL) Record (KSZL)
Temperature  
Mean Temperature 40 °F -  
Max Temperature 46 °F 45 °F 64 °F (2005)
Min Temperature 33 °F 27 °F 0 °F (2002)
Degree Days  
Heating Degree Days 26    
Moisture  
Dew Point 29 °F    
Average Humidity 69    
Maximum Humidity 81    
Minimum Humidity 53    
Precipitation  
Precipitation 0.00 in - - ()
Sea Level Pressure  
Sea Level Pressure 29.76 in    
Wind  
Wind Speed 9 mph (NE)    
Max Wind Speed 13 mph    
Max Gust Speed 18 mph    
Visibility 10 miles    
Events      
Averages and records for this station are not official NWS values.
T = Trace of Precipitation, MM = Missing Value Source: NWS Daily Summary

Daily Weather History Graph

Daily Weather History Graph

Search for Another Location

Airport:

Trip Planner

Search our weather history database for the weather conditions in past years. The results will help you decide how hot, cold, wet, or windy it might be!

Date:

Astronomy

Mar. 04, 2013 Rise Set
Actual Time 6:42 AM CST 6:11 PM CST
Civil Twilight 6:16 AM CST 6:38 PM CST
Nautical Twilight 5:45 AM CST 7:08 PM CST
Astronomical Twilight 5:14 AM CST 7:39 PM CST
Moon 12:50 AM CST (3/4) 10:56 AM CST (3/4)
Length of Visible Light 12h 21m
Length of Day
11h 28m
Waning Gibbous, 52% of the Moon is Illuminated
Mar 4
Waning Gibbous
Mar 4
Last Quarter
Mar 11
New
Mar 19
First Quarter
Mar 27
Full

Hourly Weather History & Observations

Time (CST) Temp. Windchill Dew Point Humidity Pressure Visibility Wind Dir Wind Speed Gust Speed Precip Events Conditions
12:15 AM 37.4 °F 30.3 °F 26.6 °F 65% 29.80 in 10.0 mi ESE 10.4 mph - N/A   Clear
12:35 AM 37.4 °F 30.3 °F 26.6 °F 65% 29.79 in 10.0 mi ESE 10.4 mph 16.1 mph N/A   Clear
12:55 AM 37.4 °F 29.8 °F 26.6 °F 65% 29.78 in 10.0 mi ESE 11.5 mph - N/A   Clear
1:15 AM 37.4 °F 30.3 °F 26.6 °F 65% 29.78 in 10.0 mi ESE 10.4 mph - N/A   Clear
1:35 AM 37.4 °F 30.3 °F 26.6 °F 65% 29.78 in 10.0 mi East 10.4 mph - N/A   Clear
1:55 AM 37.4 °F 30.8 °F 26.6 °F 65% 29.76 in 10.0 mi ESE 9.2 mph - N/A   Clear
2:15 AM 37.4 °F 30.3 °F 26.6 °F 65% 29.75 in 10.0 mi ESE 10.4 mph - N/A   Clear
2:35 AM 37.4 °F 30.3 °F 26.6 °F 65% 29.75 in 10.0 mi East 10.4 mph - N/A   Clear
2:55 AM 35.6 °F 28.0 °F 26.6 °F 70% 29.74 in 10.0 mi East 10.4 mph - N/A   Clear
3:15 AM 35.6 °F 28.0 °F 26.6 °F 70% 29.74 in 10.0 mi East 10.4 mph - N/A   Clear
3:35 AM 35.6 °F 28.6 °F 28.4 °F 75% 29.73 in 10.0 mi East 9.2 mph - N/A   Clear
3:55 AM 35.6 °F 29.9 °F 26.6 °F 70% 29.73 in 10.0 mi East 6.9 mph - N/A   Clear
4:15 AM 33.8 °F 26.4 °F 26.6 °F 75% 29.74 in 10.0 mi East 9.2 mph - N/A   Clear
4:35 AM 33.8 °F 27.0 °F 26.6 °F 75% 29.74 in 10.0 mi East 8.1 mph - N/A   Clear
4:55 AM 33.8 °F 27.0 °F 26.6 °F 75% 29.74 in 10.0 mi East 8.1 mph - N/A   Clear
5:15 AM 33.8 °F 26.4 °F 26.6 °F 75% 29.73 in 10.0 mi East 9.2 mph - N/A   Clear
5:35 AM 33.8 °F 27.0 °F 26.6 °F 75% 29.73 in 10.0 mi East 8.1 mph - N/A   Clear
6:15 AM 33.8 °F 27.7 °F 26.6 °F 75% 29.73 in 10.0 mi East 6.9 mph - N/A   Clear
6:35 AM 33.8 °F 27.7 °F 26.6 °F 75% 29.73 in 10.0 mi East 6.9 mph - N/A   Clear
6:55 AM 33.8 °F 26.4 °F 26.6 °F 75% 29.73 in 10.0 mi East 9.2 mph - N/A   Clear
7:15 AM 33.8 °F 26.4 °F 26.6 °F 75% 29.72 in 10.0 mi East 9.2 mph - N/A   Clear
7:35 AM 33.8 °F 25.8 °F 26.6 °F 75% 29.73 in 10.0 mi East 10.4 mph - N/A   Clear
7:55 AM 35.6 °F 28.0 °F 28.4 °F 75% 29.72 in 10.0 mi ESE 10.4 mph - N/A   Clear
8:15 AM 35.6 °F 28.0 °F 28.4 °F 75% 29.72 in 10.0 mi ESE 10.4 mph - N/A   Clear
8:35 AM 37.4 °F 30.3 °F 28.4 °F 70% 29.72 in 10.0 mi ESE 10.4 mph - N/A   Clear
8:55 AM 37.4 °F 32.1 °F 28.4 °F 70% 29.72 in 10.0 mi ESE 6.9 mph - N/A   Clear
9:15 AM 37.4 °F 32.8 °F 28.4 °F 70% 29.72 in 10.0 mi East 5.8 mph - N/A   Clear
9:35 AM 37.4 °F 31.4 °F 28.4 °F 70% 29.72 in 10.0 mi ESE 8.1 mph - N/A   Clear
9:55 AM 39.2 °F 33.6 °F 28.4 °F 65% 29.72 in 10.0 mi ESE 8.1 mph - N/A   Clear
10:15 AM 41.0 °F 35.8 °F 30.2 °F 65% 29.72 in 10.0 mi SE 8.1 mph - N/A   Clear
10:35 AM 41.0 °F 35.8 °F 30.2 °F 65% 29.72 in 10.0 mi SE 8.1 mph - N/A   Clear
10:55 AM 41.0 °F 34.7 °F 30.2 °F 65% 29.70 in 10.0 mi ESE 10.4 mph - N/A   Clear
11:15 AM 42.8 °F 37.5 °F 30.2 °F 61% 29.70 in 10.0 mi SE 9.2 mph - N/A   Clear
11:55 AM 42.8 °F 39.3 °F 30.2 °F 61% 29.70 in 10.0 mi SE 5.8 mph - N/A   Clear
12:15 PM 42.8 °F - 30.2 °F 61% 29.70 in 10.0 mi Calm Calm - N/A   Scattered Clouds
12:55 PM 46.4 °F 44.3 °F 30.2 °F 53% 29.68 in 10.0 mi NE 4.6 mph - N/A   Scattered Clouds
1:15 PM 44.6 °F - 30.2 °F 57% 29.68 in 10.0 mi Calm Calm - N/A   Clear
1:35 PM 46.4 °F 45.2 °F 30.2 °F 53% 29.68 in 10.0 mi NE 3.5 mph - N/A   Clear
1:55 PM 46.4 °F 44.3 °F 30.2 °F 53% 29.68 in 10.0 mi North 4.6 mph - N/A   Clear
2:15 PM 44.6 °F 40.7 °F 30.2 °F 57% 29.68 in 10.0 mi North 6.9 mph - N/A   Scattered Clouds
2:35 PM 44.6 °F 42.2 °F 30.2 °F 57% 29.68 in 10.0 mi NNE 4.6 mph - N/A   Scattered Clouds
2:55 PM 44.6 °F 43.1 °F 30.2 °F 57% 29.69 in 10.0 mi North 3.5 mph - N/A   Clear
3:15 PM 42.8 °F 39.3 °F 30.2 °F 61% 29.69 in 10.0 mi North 5.8 mph - N/A   Clear
3:35 PM 42.8 °F 38.6 °F 30.2 °F 61% 29.70 in 10.0 mi North 6.9 mph - N/A   Scattered Clouds
3:55 PM 42.8 °F 38.6 °F 30.2 °F 61% 29.71 in 10.0 mi North 6.9 mph - N/A   Scattered Clouds
4:15 PM 42.8 °F 39.3 °F 30.2 °F 61% 29.72 in 10.0 mi North 5.8 mph - N/A   Clear
4:35 PM 42.8 °F 38.6 °F 30.2 °F 61% 29.73 in 10.0 mi NNW 6.9 mph - N/A   Clear
4:55 PM 41.0 °F 38.0 °F 30.2 °F 65% 29.73 in 10.0 mi NNW 4.6 mph - N/A   Clear
5:15 PM 41.0 °F 38.0 °F 30.2 °F 65% 29.74 in 10.0 mi NNW 4.6 mph - N/A   Clear
5:35 PM 41.0 °F 37.1 °F 30.2 °F 65% 29.75 in 10.0 mi NNW 5.8 mph - N/A   Clear
5:55 PM 41.0 °F 37.1 °F 30.2 °F 65% 29.76 in 10.0 mi NNW 5.8 mph - N/A   Clear
6:15 PM 39.2 °F 34.2 °F 30.2 °F 70% 29.77 in 10.0 mi NNW 6.9 mph - N/A   Clear
6:55 PM 37.4 °F 31.4 °F 30.2 °F 75% 29.77 in 10.0 mi North 8.1 mph - N/A   Clear
7:15 PM 37.4 °F 31.4 °F 30.2 °F 75% 29.78 in 10.0 mi NNW 8.1 mph - N/A   Clear
7:55 PM 37.4 °F 32.1 °F 30.2 °F 75% 29.81 in 10.0 mi NNW 6.9 mph - N/A   Scattered Clouds
8:35 PM 37.4 °F 31.4 °F 30.2 °F 75% 29.85 in 10.0 mi NW 8.1 mph - N/A   Overcast
8:55 PM 37.4 °F 30.8 °F 30.2 °F 75% 29.85 in 10.0 mi NW 9.2 mph - N/A   Overcast
9:15 PM 37.4 °F 30.8 °F 30.2 °F 75% 29.86 in 10.0 mi NW 9.2 mph - N/A   Overcast
9:35 PM 37.4 °F 30.8 °F 30.2 °F 75% 29.88 in 10.0 mi NW 9.2 mph - N/A   Overcast
9:55 PM 35.6 °F 29.2 °F 30.2 °F 81% 29.88 in 10.0 mi NW 8.1 mph - N/A   Overcast
10:15 PM 35.6 °F 28.0 °F 30.2 °F 81% 29.89 in 10.0 mi NW 10.4 mph - N/A   Overcast
10:35 PM 35.6 °F 28.0 °F 30.2 °F 81% 29.90 in 10.0 mi NW 10.4 mph - N/A   Mostly Cloudy
10:55 PM 35.6 °F 28.6 °F 28.4 °F 75% 29.90 in 10.0 mi NW 9.2 mph - N/A   Scattered Clouds
11:15 PM 35.6 °F 28.0 °F 28.4 °F 75% 29.92 in 10.0 mi NW 10.4 mph - N/A   Scattered Clouds
11:35 PM 35.6 °F 29.9 °F 28.4 °F 75% 29.92 in 10.0 mi NW 6.9 mph - N/A   Scattered Clouds
11:55 PM 35.6 °F 27.1 °F 30.2 °F 81% 29.92 in 10.0 mi NW 12.7 mph 18.4 mph N/A   Mostly Cloudy